Location: Prostejov
(49.4670°N, 17.1170°E)
Time: 11:07:22
(UTC+02:00)

ISS - Pass Details

Date: 25 May 2021
Orbit: 417 x 422 km, 51.6° (Epoch: 13 June)

Event Time Altitude Azimuth Distance (km) Brightness Sun altitude
Rises 22:12:35 0° 287° (WNW) 2,367 1.0 -11.4°
Reaches altitude 10° 22:14:41 10° 288° (WNW) 1,502 -0.1 -11.6°
Maximum altitude 22:18:03 87° 15° (NNE) 425 -3.8 -11.9°
Enters shadow 22:20:44 15° 107° (ESE) 1,217 -1.9 -12.2°
